QPF
0.00 0.00 0.00 0.00 0.00 0.00 0.00 0.00 0.00 0.00 0.00 0.00 0.00 0.00 0.00 0.00 0.00 0.00 0.00 0.00 0.00 0.00 0.00 0.00 0.01 0.00 0.00 0.00 0.02 0.01 0.00 0.00 0.00 0.00 0.00 0.00 0.00 0.00 0.00 0.00 0.00 0.00 0.00 0.00 0.00 0.00 0.00 0.00 0.00
0.00 0.00 0.01 0.00 0.00 0.00 0.00 0.00 0.00 0.00 0.00 0.00 0.00 0.00 0.00 0.00 0.00 0.00 0.00 0.00 0.00 0.00 0.00 0.00 0.01 0.01 0.00 0.00 0.00 0.00 0.00 0.00 0.00 0.00 0.00 0.00 0.00 0.00 0.00 0.00 0.00 0.00 0.00 0.00 0.00 0.00 0.01 0.00 0.00
0.00 0.00 0.00 0.00 0.00 0.00 0.00 0.00 0.00 0.00 0.00 0.00 0.00 0.00 0.00 0.00 0.00 0.00 0.00 0.00 0.00 0.00 0.00 0.00 0.00 0.00 0.00 0.00 0.00 0.00 0.00 0.00 0.00 0.00 0.00 0.00 0.00 0.00 0.00 0.00 0.00 0.00 0.00 0.00 0.00 0.04 0.09 0.04 0.03
0.00 0.00 0.00 0.00 0.00 0.00 0.00 0.00 0.00 0.00 0.00 0.00 0.00 0.00 0.00 0.00 0.00 0.00 0.00 0.00 0.00 0.00 0.00 0.00 0.00 0.00 0.00 0.00 0.00 0.00 0.00 0.00 0.00 0.00 0.00 0.00 0.00 0.00 0.00 0.00 0.00 0.00 0.00 0.03 0.07 0.06 0.05 0.11 0.10
0.00 0.00 0.00 0.00 0.00 0.00 0.00 0.00 0.00 0.00 0.00 0.00 0.00 0.00 0.00 0.00 0.00 0.00 0.00 0.00 0.00 0.00 0.00 0.00 0.00 0.00 0.00 0.00 0.00 0.00 0.00 0.00 0.00 0.00 0.00 0.00 0.00 0.00 0.00 0.00 0.01 0.03 0.05 0.10 0.15 0.04 0.00 0.07 0.03
0.00 0.00 0.00 0.00 0.00 0.00 0.00 0.00 0.00 0.00 0.00 0.00 0.00 0.00 0.00 0.00 0.00 0.00 0.00 0.00 0.00 0.00 0.00 0.00 0.00 0.00 0.00 0.00 0.00 0.00 0.01 0.00 0.00 0.00 0.00 0.00 0.00 0.00 0.00 0.00 0.02 0.01 0.01 0.04 0.08 0.04 0.00 0.00 0.00
0.00 0.00 0.00 0.00 0.00 0.00 0.00 0.00 0.00 0.00 0.00 0.00 0.00 0.00 0.00 0.00 0.00 0.00 0.00 0.00 0.00 0.00 0.00 0.00 0.00 0.02 0.00 0.00 0.00 0.00 0.00 0.00 0.00 0.00 0.01 0.02 0.02 0.03 0.01 0.00 0.00 0.00 0.01 0.05 0.06 0.07 0.02 0.00 0.00
0.00 0.00 0.00 0.00 0.00 0.00 0.00 0.00 0.00 0.00 0.00 0.00 0.00 0.00 0.00 0.00 0.00 0.00 0.00 0.00 0.00 0.00 0.00 0.00 0.00 0.00 0.00 0.00 0.00 0.00 0.00 0.00 0.00 0.00 0.00 0.00 0.00 0.00 0.00 0.00 0.00 0.00 0.00 0.04 0.06 0.02 0.00 0.00 0.00
0.00 0.00 0.00 0.00 0.00 0.00 0.00 0.00 0.00 0.00 0.00 0.00 0.00 0.00 0.00 0.00 0.00 0.00 0.00 0.00 0.00 0.00 0.00 0.00 0.00 0.00 0.00 0.00 0.00 0.00 0.00 0.00 0.00 0.00 0.00 0.00 0.00 0.00 0.00 0.00 0.00 0.01 0.07 0.09 0.03 0.01 0.00 0.00 0.00
0.00 0.00 0.00 0.00 0.00 0.00 0.00 0.00 0.00 0.00 0.00 0.00 0.00 0.00 0.00 0.00 0.00 0.00 0.00 0.00 0.00 0.00 0.00 0.00 0.00 0.00 0.00 0.00 0.00 0.00 0.00 0.01 0.02 0.00 0.04 0.01 0.00 0.00 0.02 0.05 0.09 0.23 0.18 0.22 0.06 0.01 0.06 0.04 0.00
0.00 0.00 0.00 0.00 0.00 0.00 0.00 0.00 0.00 0.00 0.00 0.00 0.00 0.00 0.00 0.00 0.00 0.00 0.00 0.00 0.00 0.00 0.00 0.00 0.00 0.00 0.00 0.00 0.00 0.00 0.00 0.00 0.02 0.06 0.01 0.00 0.00 0.00 0.06 0.14 0.14 0.20 0.21 0.26 0.16 0.11 0.03 0.00 0.00
0.00 0.00 0.00 0.00 0.00 0.00 0.00 0.00 0.00 0.00 0.00 0.00 0.00 0.00 0.00 0.00 0.00 0.00 0.00 0.00 0.00 0.00 0.00 0.00 0.00 0.00 0.00 0.00 0.00 0.00 0.00 0.00 0.01 0.01 0.00 0.00 0.02 0.05 0.04 0.16 0.12 0.06 0.08 0.09 0.03 0.02 0.05 0.02 0.00
0.00 0.00 0.00 0.00 0.00 0.00 0.00 0.00 0.00 0.00 0.00 0.00 0.00 0.00 0.00 0.00 0.00 0.00 0.00 0.00 0.00 0.00 0.00 0.00 0.00 0.00 0.00 0.00 0.00 0.00 0.00 0.00 0.00 0.00 0.00 0.00 0.05 0.05 0.04 0.02 0.01 0.00 0.01 0.00 0.00 0.00 0.01 0.07 0.05
0.00 0.00 0.00 0.00 0.00 0.00 0.00 0.00 0.00 0.00 0.00 0.00 0.00 0.00 0.00 0.00 0.00 0.00 0.00 0.00 0.00 0.00 0.00 0.00 0.00 0.00 0.00 0.00 0.00 0.00 0.00 0.00 0.00 0.00 0.00 0.00 0.00 0.02 0.01 0.02 0.01 0.00 0.00 0.01 0.00 0.00 0.00 0.00 0.00
0.00 0.00 0.00 0.00 0.00 0.00 0.00 0.00 0.00 0.00 0.00 0.00 0.00 0.00 0.00 0.00 0.00 0.00 0.00 0.00 0.00 0.00 0.00 0.00 0.00 0.00 0.00 0.00 0.00 0.00 0.00 0.00 0.00 0.00 0.00 0.00 0.00 0.00 0.01 0.01 0.01 0.02 0.00 0.07 0.05 0.01 0.07 0.08 0.01
0.00 0.00 0.00 0.00 0.00 0.00 0.00 0.00 0.00 0.00 0.00 0.00 0.00 0.00 0.00 0.00 0.00 0.00 0.00 0.00 0.00 0.00 0.00 0.00 0.00 0.00 0.00 0.00 0.00 0.00 0.00 0.00 0.00 0.00 0.00 0.00 0.00 0.00 0.00 0.01 0.05 0.00 0.00 0.01 0.00 0.01 0.07 0.02 0.01
0.00 0.00 0.00 0.00 0.00 0.00 0.00 0.00 0.00 0.00 0.00 0.00 0.00 0.00 0.00 0.00 0.00 0.00 0.00 0.00 0.00 0.00 0.00 0.00 0.00 0.00 0.00 0.00 0.00 0.00 0.00 0.00 0.00 0.00 0.00 0.00 0.00 0.00 0.01 0.01 0.02 0.00 0.00 0.00 0.00 0.00 0.00 0.04 0.10
0.00 0.00 0.00 0.00 0.00 0.00 0.00 0.00 0.00 0.00 0.00 0.00 0.00 0.00 0.00 0.00 0.00 0.00 0.00 0.00 0.00 0.00 0.00 0.00 0.00 0.00 0.00 0.00 0.00 0.00 0.00 0.00 0.00 0.01 0.00 0.00 0.01 0.00 0.00 0.00 0.00 0.00 0.00 0.00 0.00 0.00 0.00 0.03 0.10
0.00 0.00 0.00 0.00 0.00 0.00 0.00 0.00 0.00 0.00 0.00 0.00 0.00 0.00 0.00 0.00 0.00 0.00 0.00 0.00 0.00 0.00 0.00 0.00 0.00 0.00 0.00 0.00 0.00 0.00 0.00 0.00 0.00 0.00 0.00 0.00 0.04 0.00 0.00 0.00 0.00 0.00 0.00 0.00 0.00 0.00 0.00 0.00 0.02
0.00 0.00 0.00 0.00 0.00 0.00 0.00 0.00 0.00 0.00 0.00 0.00 0.00 0.00 0.00 0.00 0.00 0.00 0.00 0.00 0.00 0.00 0.00 0.00 0.00 0.00 0.00 0.00 0.00 0.00 0.00 0.00 0.00 0.00 0.00 0.01 0.03 0.00 0.00 0.03 0.03 0.01 0.00 0.00 0.00 0.00 0.00 0.00 0.00
0.00 0.00 0.00 0.00 0.00 0.00 0.00 0.00 0.00 0.00 0.00 0.00 0.00 0.00 0.00 0.00 0.00 0.00 0.00 0.00 0.00 0.00 0.00 0.00 0.00 0.00 0.00 0.00 0.00 0.00 0.00 0.00 0.00 0.00 0.00 0.00 0.00 0.00 0.00 0.01 0.00 0.00 0.00 0.00 0.00 0.00 0.00 0.00 0.00
0.00 0.00 0.00 0.00 0.00 0.00 0.00 0.00 0.00 0.00 0.00 0.00 0.00 0.00 0.00 0.00 0.00 0.01 0.00 0.00 0.00 0.00 0.00 0.00 0.00 0.00 0.00 0.00 0.00 0.00 0.00 0.00 0.00 0.00 0.00 0.00 0.00 0.00 0.00 0.00 0.00 0.00 0.00 0.00 0.00 0.00 0.00 0.00 0.00
0.00 0.00 0.00 0.00 0.00 0.00 0.00 0.00 0.00 0.00 0.00 0.00 0.00 0.00 0.00 0.00 0.00 0.01 0.01 0.00 0.00 0.00 0.00 0.00 0.00 0.00 0.00 0.00 0.00 0.00 0.00 0.00 0.00 0.00 0.00 0.00 0.00 0.00 0.00 0.00 0.00 0.00 0.00 0.00 0.00 0.00 0.00 0.00 0.00
0.00 0.00 0.00 0.00 0.00 0.00 0.00 0.00 0.00 0.00 0.00 0.00 0.00 0.00 0.00 0.00 0.00 0.00 0.00 0.00 0.00 0.00 0.00 0.00 0.00 0.00 0.00 0.00 0.00 0.00 0.00 0.00 0.00 0.00 0.00 0.00 0.00 0.00 0.00 0.00 0.00 0.00 0.01 0.00 0.00 0.00 0.00 0.00 0.00
0.00 0.00 0.00 0.00 0.00 0.00 0.00 0.00 0.00 0.00 0.00 0.00 0.00 0.00 0.00 0.00 0.00 0.00 0.00 0.00 0.00 0.00 0.00 0.00 0.00 0.00 0.00 0.00 0.00 0.00 0.00 0.00 0.00 0.00 0.00 0.00 0.00 0.00 0.00 0.00 0.00 0.02 0.04 0.00 0.00 0.00 0.00 0.00 0.00
0.00 0.00 0.00 0.00 0.00 0.00 0.00 0.00 0.00 0.00 0.00 0.00 0.00 0.00 0.00 0.00 0.00 0.00 0.00 0.00 0.00 0.00 0.00 0.00 0.00 0.00 0.00 0.00 0.00 0.00 0.00 0.00 0.00 0.00 0.00 0.00 0.00 0.00 0.00 0.00 0.00 0.00 0.01 0.00 0.00 0.00 0.00 0.00 0.00
0.00 0.00 0.00 0.00 0.00 0.00 0.00 0.00 0.00 0.00 0.00 0.00 0.00 0.00 0.00 0.00 0.00 0.00 0.00 0.00 0.00 0.00 0.00 0.00 0.00 0.01 0.00 0.00 0.01 0.00 0.00 0.00 0.00 0.00 0.00 0.00 0.00 0.00 0.00 0.00 0.00 0.00 0.00 0.00 0.00 0.00 0.00 0.00 0.00
0.00 0.00 0.00 0.00 0.00 0.00 0.00 0.00 0.00 0.00 0.00 0.00 0.00 0.00 0.00 0.00 0.00 0.00 0.00 0.00 0.00 0.00 0.00 0.00 0.00 0.02 0.07 0.02 0.01 0.01 0.00 0.00 0.00 0.00 0.00 0.00 0.00 0.00 0.00 0.00 0.00 0.00 0.00 0.00 0.00 0.00 0.00 0.00 0.00
0.00 0.00 0.00 0.00 0.00 0.00 0.00 0.00 0.00 0.00 0.00 0.00 0.00 0.00 0.00 0.00 0.00 0.00 0.01 0.00 0.00 0.00 0.00 0.03 0.07 0.08 0.21 0.06 0.00 0.01 0.00 0.00 0.00 0.00 0.00 0.00 0.00 0.00 0.00 0.00 0.00 0.00 0.00 0.00 0.00 0.00 0.00 0.00 0.00
0.00 0.00 0.00 0.00 0.00 0.00 0.00 0.00 0.00 0.00 0.00 0.00 0.00 0.00 0.00 0.00 0.00 0.00 0.00 0.00 0.00 0.00 0.00 0.05 0.10 0.10 0.29 0.03 0.00 0.00 0.00 0.00 0.00 0.00 0.00 0.00 0.00 0.00 0.00 0.00 0.00 0.00 0.00 0.00 0.00 0.00 0.00 0.00 0.00
MSLP
1009.17 1009.28 1009.21 1008.85 1008.80 1008.02 1008.24 1008.98 1009.20 1009.71 1010.21 1010.74 1011.22 1011.68 1012.72 1013.61 1013.71 1014.81 1015.61 1016.20 1016.35 1016.36 1016.30 1016.46 1016.64 1016.63 1016.83 1016.95 1017.44 1017.44 1017.71 1017.89 1018.27 1018.43 1018.63 1018.85 1018.97 1019.19 1019.17 1019.31 1019.42 1019.52 1019.67 1019.83 1019.90 1019.89 1019.97 1019.95 1019.97
1009.03 1009.29 1009.02 1008.40 1008.29 1007.87 1008.41 1008.92 1009.08 1009.61 1010.27 1010.95 1011.61 1012.37 1012.86 1014.16 1014.45 1015.16 1015.75 1016.21 1016.42 1016.59 1016.61 1016.75 1016.80 1017.01 1016.90 1017.20 1017.57 1017.75 1018.05 1018.16 1018.39 1018.56 1018.77 1019.04 1019.16 1019.33 1019.41 1019.50 1019.65 1019.79 1019.95 1019.97 1020.07 1020.09 1020.13 1020.14 1020.21
1009.18 1009.11 1008.68 1008.33 1008.48 1008.26 1008.58 1009.16 1009.57 1010.11 1010.39 1010.89 1011.91 1012.83 1013.66 1014.59 1015.20 1015.42 1015.70 1016.16 1016.44 1016.83 1016.91 1017.02 1017.07 1017.25 1017.15 1017.49 1017.79 1017.93 1018.11 1018.44 1018.53 1018.78 1018.95 1019.09 1019.29 1019.40 1019.55 1019.63 1019.83 1019.98 1020.07 1020.16 1020.17 1020.15 1020.20 1020.31 1020.36
1009.16 1008.99 1008.64 1008.31 1008.58 1008.92 1008.89 1009.42 1009.81 1010.23 1010.83 1011.31 1011.94 1013.26 1014.60 1014.88 1015.43 1015.59 1016.05 1016.31 1016.65 1016.88 1017.01 1017.34 1017.39 1017.32 1017.56 1017.94 1018.05 1018.17 1018.26 1018.51 1018.68 1018.79 1019.08 1019.21 1019.31 1019.40 1019.59 1019.72 1019.93 1020.05 1020.14 1020.20 1020.13 1020.28 1020.44 1020.24 1020.45
1008.96 1008.48 1008.05 1008.33 1008.88 1009.18 1009.27 1009.58 1009.87 1010.20 1010.93 1011.60 1012.09 1013.81 1014.74 1015.54 1015.65 1015.90 1016.30 1016.66 1016.92 1017.04 1017.20 1017.46 1017.69 1017.77 1017.96 1018.25 1018.22 1018.33 1018.51 1018.65 1018.78 1018.99 1019.18 1019.39 1019.42 1019.46 1019.62 1019.77 1019.83 1020.03 1020.17 1020.15 1020.27 1020.33 1020.35 1020.45 1020.45
1008.36 1008.38 1008.11 1008.30 1009.05 1009.42 1009.66 1009.85 1010.07 1010.51 1011.25 1011.93 1012.71 1013.55 1015.03 1015.75 1015.81 1016.19 1016.51 1016.78 1017.10 1017.44 1017.42 1017.72 1017.97 1018.23 1018.23 1018.31 1018.37 1018.58 1018.65 1018.82 1018.89 1019.05 1019.31 1019.43 1019.47 1019.57 1019.68 1019.83 1019.93 1019.93 1020.01 1020.15 1020.25 1020.25 1020.32 1020.42 1020.49
1007.87 1007.84 1008.47 1008.70 1009.10 1009.33 1009.65 1009.95 1010.17 1010.57 1011.25 1011.89 1012.61 1013.52 1015.40 1015.77 1015.98 1016.33 1016.71 1016.99 1017.11 1017.54 1017.66 1017.86 1018.01 1018.39 1018.55 1018.51 1018.51 1018.66 1018.89 1019.00 1019.13 1019.25 1019.43 1019.52 1019.41 1019.54 1019.62 1019.72 1019.93 1019.99 1020.09 1020.17 1020.31 1020.47 1020.39 1020.47 1020.46
1007.53 1007.63 1008.33 1008.75 1008.87 1009.33 1009.72 1010.00 1010.45 1010.50 1011.34 1011.96 1012.31 1013.33 1014.73 1015.41 1016.10 1016.54 1016.92 1017.22 1017.55 1017.75 1017.95 1018.11 1018.29 1018.27 1018.43 1018.52 1018.77 1018.90 1019.01 1019.11 1019.21 1019.38 1019.49 1019.57 1019.52 1019.70 1019.75 1019.78 1019.91 1020.01 1020.10 1020.27 1020.41 1020.52 1020.47 1020.48 1020.60
1007.51 1007.47 1008.19 1008.68 1008.83 1009.17 1009.65 1009.87 1010.49 1010.73 1011.04 1011.79 1012.51 1012.89 1013.84 1015.28 1016.05 1016.49 1016.82 1017.22 1017.61 1017.83 1017.93 1017.82 1018.17 1018.40 1018.62 1018.73 1018.73 1018.97 1019.07 1019.18 1019.43 1019.47 1019.63 1019.57 1019.61 1019.62 1019.81 1019.85 1019.96 1019.77 1019.86 1020.27 1020.41 1020.52 1020.57 1020.64 1020.64
1007.03 1007.69 1008.43 1009.08 1009.09 1009.07 1009.47 1009.75 1010.14 1010.65 1011.16 1012.19 1012.95 1013.72 1014.53 1015.36 1015.88 1016.10 1016.43 1016.79 1017.15 1017.48 1017.87 1017.96 1018.19 1018.39 1018.66 1018.75 1018.87 1018.89 1019.00 1019.01 1019.42 1019.51 1019.65 1019.67 1019.78 1019.93 1019.91 1019.85 1019.80 1019.91 1019.95 1020.11 1020.31 1020.39 1020.57 1020.56 1020.87
1007.59 1008.03 1008.76 1009.12 1009.10 1008.93 1009.29 1009.74 1010.04 1010.39 1010.94 1011.67 1012.51 1013.59 1014.56 1015.23 1015.68 1015.88 1016.26 1016.59 1016.89 1017.31 1017.58 1017.91 1018.11 1018.48 1018.57 1018.67 1018.81 1018.99 1019.07 1019.21 1019.39 1019.67 1019.55 1019.72 1020.00 1020.02 1019.97 1019.83 1019.65 1019.68 1019.84 1020.04 1020.17 1020.26 1020.62 1020.45 1020.59
1007.61 1008.52 1008.68 1008.92 1009.14 1009.15 1009.38 1009.65 1009.95 1010.15 1010.39 1011.11 1012.44 1013.26 1014.17 1014.74 1015.09 1015.50 1015.96 1016.41 1016.85 1017.23 1017.46 1017.62 1017.82 1018.28 1018.53 1018.64 1018.83 1018.98 1019.14 1019.13 1019.26 1019.33 1019.47 1019.65 1019.79 1019.83 1019.80 1019.71 1019.56 1019.48 1019.59 1019.85 1019.92 1019.94 1020.20 1020.31 1020.45
1007.52 1008.45 1008.78 1008.80 1009.01 1009.12 1009.41 1009.57 1009.94 1010.55 1010.95 1011.70 1012.87 1013.64 1013.98 1014.37 1014.83 1015.31 1015.83 1016.23 1016.60 1016.91 1017.21 1017.48 1017.66 1018.08 1018.37 1018.74 1018.81 1018.94 1018.99 1019.09 1019.20 1019.31 1019.52 1019.69 1019.74 1019.49 1019.70 1019.56 1019.43 1019.48 1019.49 1019.67 1019.71 1019.71 1019.83 1019.96 1020.09
1007.96 1008.26 1008.63 1008.77 1008.88 1009.01 1009.29 1009.70 1009.96 1011.02 1011.51 1012.17 1012.82 1013.47 1013.94 1014.20 1014.49 1014.98 1015.44 1015.79 1016.18 1016.55 1016.78 1017.11 1017.44 1017.78 1018.19 1018.50 1018.78 1018.82 1019.03 1019.09 1019.24 1019.33 1019.47 1019.59 1019.59 1019.33 1019.37 1019.35 1019.16 1019.19 1019.37 1019.42 1019.49 1019.57 1019.69 1019.70 1019.85
1007.85 1008.00 1008.24 1008.56 1008.87 1009.09 1009.49 1009.84 1010.03 1010.73 1011.49 1012.13 1012.77 1013.33 1013.81 1014.03 1014.46 1014.49 1014.77 1015.20 1015.65 1016.07 1016.52 1016.86 1017.18 1017.48 1018.04 1018.27 1018.62 1018.67 1018.74 1018.73 1019.03 1019.15 1019.29 1019.39 1019.38 1019.31 1019.45 1019.32 1019.21 1019.23 1019.38 1019.44 1019.41 1019.53 1019.50 1019.52 1019.57
1007.66 1008.06 1008.23 1008.51 1008.73 1009.00 1009.19 1009.59 1010.51 1010.96 1011.31 1011.95 1012.50 1013.03 1013.51 1013.81 1013.96 1014.29 1014.59 1015.03 1015.41 1015.85 1016.34 1016.73 1016.96 1017.31 1017.73 1018.08 1018.47 1018.57 1018.67 1018.71 1018.63 1018.82 1018.94 1019.12 1019.22 1019.35 1019.30 1019.15 1019.21 1019.25 1019.47 1019.29 1019.25 1019.23 1019.30 1019.64 1019.81
1007.87 1007.87 1008.17 1008.15 1008.51 1008.70 1008.95 1009.37 1010.44 1011.05 1011.22 1011.62 1012.21 1012.53 1012.92 1013.17 1013.57 1013.85 1014.29 1014.67 1015.01 1015.55 1016.08 1016.51 1016.85 1017.14 1017.51 1017.97 1018.33 1018.45 1018.52 1018.56 1018.46 1018.62 1018.74 1018.96 1019.12 1019.18 1019.23 1019.06 1019.23 1019.35 1019.17 1019.10 1019.11 1019.22 1019.35 1019.83 1020.07
1007.33 1007.66 1007.97 1007.95 1008.12 1008.67 1008.84 1009.15 1009.87 1010.58 1010.91 1011.09 1011.55 1011.92 1012.23 1012.55 1012.61 1013.00 1013.64 1014.21 1014.65 1015.21 1015.77 1016.30 1016.66 1016.99 1017.49 1017.79 1018.22 1018.19 1018.17 1018.23 1018.33 1018.42 1018.59 1018.78 1018.86 1019.01 1019.11 1019.14 1019.31 1019.41 1019.11 1019.18 1019.24 1019.37 1019.68 1019.89 1020.16
1007.10 1007.39 1007.67 1007.80 1007.93 1008.21 1008.43 1008.73 1009.29 1009.89 1010.44 1010.72 1011.08 1011.50 1011.65 1011.68 1011.84 1012.48 1013.03 1013.69 1014.35 1014.90 1015.34 1015.75 1016.36 1016.71 1017.29 1017.66 1017.89 1017.93 1017.74 1017.88 1018.01 1018.18 1018.51 1018.60 1018.82 1018.96 1018.97 1018.88 1019.06 1019.21 1019.17 1019.25 1019.45 1019.55 1019.75 1020.09 1020.39
1006.86 1007.07 1007.34 1007.79 1008.02 1008.11 1007.93 1007.79 1008.29 1009.03 1009.11 1009.25 1009.93 1010.63 1010.84 1011.23 1011.53 1011.96 1012.53 1013.11 1013.66 1014.10 1014.65 1015.33 1015.80 1016.35 1016.86 1017.21 1017.43 1017.62 1017.82 1017.83 1017.86 1017.97 1018.34 1018.50 1018.65 1018.76 1018.69 1018.77 1018.96 1019.08 1019.23 1019.32 1019.45 1019.55 1019.59 1019.88 1020.21
1006.45 1006.57 1007.14 1007.59 1007.86 1007.93 1007.66 1006.90 1007.62 1008.27 1008.79 1009.13 1009.21 1009.31 1009.94 1010.49 1010.93 1011.24 1011.83 1012.35 1013.05 1013.50 1013.85 1014.35 1015.04 1015.76 1016.38 1016.76 1017.28 1017.61 1017.83 1017.97 1018.05 1018.11 1018.23 1018.32 1018.51 1018.54 1018.55 1018.64 1018.69 1019.00 1019.11 1019.15 1019.37 1019.54 1019.61 1019.51 1020.12
1006.06 1006.41 1006.99 1007.31 1007.45 1007.55 1007.75 1006.77 1006.53 1007.20 1007.88 1008.21 1008.30 1008.56 1008.78 1009.38 1010.13 1010.59 1010.99 1011.58 1012.22 1012.51 1013.30 1013.91 1014.60 1015.12 1015.91 1016.53 1016.86 1017.09 1017.26 1017.37 1017.53 1017.75 1017.99 1018.01 1018.10 1018.23 1018.36 1018.48 1018.69 1018.95 1018.97 1019.28 1019.29 1019.38 1019.57 1019.65 1019.53
1006.40 1006.64 1006.99 1007.31 1007.33 1007.45 1007.37 1006.87 1005.73 1006.52 1006.53 1006.93 1007.30 1007.60 1008.02 1008.45 1009.00 1009.63 1010.31 1010.59 1011.01 1012.04 1012.54 1013.25 1014.21 1014.79 1015.32 1016.00 1016.45 1016.91 1017.21 1017.39 1017.62 1017.75 1017.86 1017.82 1017.90 1018.04 1018.17 1018.42 1018.63 1018.88 1018.95 1019.20 1019.36 1019.42 1019.59 1019.68 1019.49
1006.77 1006.89 1007.31 1007.32 1007.17 1006.78 1006.99 1006.59 1004.95 1005.21 1005.49 1005.75 1005.99 1006.51 1007.12 1007.72 1008.37 1008.83 1009.38 1010.12 1010.73 1011.57 1012.26 1012.87 1013.59 1014.33 1014.98 1015.67 1016.27 1016.71 1016.96 1017.43 1017.63 1017.66 1017.61 1017.63 1017.82 1017.92 1018.05 1018.21 1018.46 1018.70 1018.91 1019.18 1019.21 1019.41 1019.57 1019.67 1019.71
1006.65 1006.45 1006.63 1006.81 1006.81 1006.42 1007.15 1006.63 1004.73 1004.71 1005.13 1005.20 1005.17 1005.38 1006.02 1006.74 1007.47 1008.05 1008.57 1009.30 1010.03 1010.90 1011.65 1012.40 1013.38 1013.95 1014.61 1015.30 1015.86 1016.37 1016.76 1017.28 1017.40 1017.37 1017.25 1017.33 1017.35 1017.43 1017.62 1017.94 1018.29 1018.47 1018.73 1018.98 1019.13 1019.33 1019.47 1019.63 1019.62
1006.27 1006.07 1005.72 1005.93 1006.32 1006.20 1007.10 1005.58 1004.35 1004.71 1005.08 1005.01 1005.00 1004.90 1005.48 1006.11 1006.63 1007.23 1007.83 1008.62 1009.24 1010.00 1011.08 1012.01 1012.83 1013.67 1014.28 1014.80 1015.35 1015.97 1016.41 1016.67 1016.95 1017.05 1016.94 1016.90 1016.91 1016.93 1017.07 1017.51 1017.86 1018.30 1018.55 1018.77 1019.02 1019.19 1019.37 1019.60 1019.72
1006.36 1006.21 1005.80 1005.99 1007.03 1006.33 1005.81 1005.03 1004.38 1004.51 1004.79 1005.08 1005.08 1004.92 1005.11 1005.63 1006.10 1006.47 1007.36 1007.98 1008.73 1009.53 1010.55 1011.45 1012.31 1013.16 1013.89 1014.23 1014.94 1015.59 1015.97 1016.23 1016.30 1016.63 1016.82 1016.79 1016.85 1016.77 1016.98 1017.24 1017.75 1018.03 1018.29 1018.55 1018.79 1018.99 1019.34 1019.63 1019.77
1005.23 1005.60 1005.83 1005.78 1005.67 1005.54 1005.25 1004.68 1004.07 1004.13 1004.62 1005.29 1005.54 1005.46 1005.48 1005.47 1005.64 1005.97 1006.86 1007.43 1008.11 1008.92 1009.99 1011.28 1012.61 1013.68 1014.41 1014.87 1015.43 1015.49 1015.53 1015.76 1015.97 1016.19 1016.35 1016.52 1016.59 1016.72 1016.85 1017.16 1017.51 1017.87 1018.06 1018.31 1018.70 1018.93 1019.34 1019.73 1019.87
1005.37 1005.10 1005.43 1005.31 1005.48 1004.84 1004.54 1003.82 1003.63 1003.97 1004.80 1005.46 1005.49 1005.82 1005.98 1005.72 1005.60 1005.85 1006.37 1007.34 1007.99 1009.01 1010.13 1011.40 1012.48 1013.39 1013.91 1013.43 1013.70 1014.79 1015.16 1015.21 1015.38 1015.52 1015.79 1016.00 1016.26 1016.47 1016.65 1016.85 1017.11 1017.43 1017.77 1018.04 1018.37 1018.66 1018.96 1019.35 1019.60
1004.25 1003.97 1004.10 1004.34 1005.20 1005.34 1004.63 1003.53 1003.66 1004.47 1005.16 1005.66 1005.78 1005.93 1006.07 1006.05 1005.69 1005.71 1006.18 1007.17 1007.91 1009.11 1010.37 1011.45 1012.18 1012.94 1013.71 1012.71 1013.33 1013.56 1014.11 1014.42 1014.58 1014.85 1014.99 1015.37 1015.60 1015.85 1016.17 1016.37 1016.65 1016.97 1017.35 1017.73 1018.09 1018.37 1018.61 1018.93 1019.25
Thickness
5824 5822 5823 5817 5795 5793 5770 5769 5785 5773 5773 5784 5784 5774 5760 5756 5755 5741 5762 5762 5761 5765 5768 5768 5768 5771 5771 5774 5767 5768 5766 5764 5760 5762 5760 5757 5755 5753 5754 5753 5752 5750 5748 5745 5745 5744 5742 5741 5740
5828 5825 5821 5811 5787 5772 5770 5784 5778 5783 5786 5789 5783 5775 5765 5749 5763 5761 5761 5767 5764 5765 5768 5769 5772 5769 5774 5772 5767 5767 5766 5764 5763 5762 5761 5758 5756 5756 5755 5754 5752 5750 5747 5746 5746 5745 5743 5741 5739
5833 5831 5815 5799 5784 5771 5771 5782 5782 5786 5795 5790 5777 5779 5768 5757 5764 5766 5774 5774 5771 5768 5771 5772 5773 5771 5776 5770 5766 5768 5767 5765 5765 5764 5762 5761 5758 5758 5756 5756 5753 5750 5748 5747 5747 5746 5743 5741 5739
5828 5825 5817 5795 5776 5782 5785 5787 5790 5787 5791 5792 5788 5767 5769 5776 5767 5773 5774 5771 5771 5769 5772 5772 5772 5775 5771 5766 5768 5769 5770 5767 5766 5767 5764 5762 5761 5760 5757 5755 5754 5751 5749 5748 5749 5747 5742 5743 5740
5832 5823 5805 5789 5779 5787 5795 5798 5797 5788 5787 5787 5790 5764 5763 5771 5777 5778 5776 5773 5771 5772 5773 5772 5770 5771 5768 5767 5771 5770 5770 5769 5769 5767 5765 5763 5763 5762 5759 5757 5756 5754 5751 5751 5752 5749 5747 5744 5742
5821 5819 5796 5782 5779 5788 5793 5800 5796 5790 5787 5785 5780 5776 5766 5777 5777 5776 5777 5774 5772 5771 5773 5770 5769 5767 5769 5770 5771 5770 5771 5770 5770 5769 5766 5766 5765 5763 5762 5759 5758 5758 5754 5753 5752 5753 5749 5746 5743
5822 5816 5790 5789 5781 5784 5792 5804 5793 5790 5786 5783 5790 5772 5766 5771 5780 5779 5776 5774 5775 5771 5771 5770 5769 5768 5767 5771 5771 5771 5770 5771 5771 5769 5767 5767 5768 5766 5765 5763 5761 5759 5756 5755 5754 5753 5752 5749 5747
5834 5824 5796 5793 5786 5782 5799 5801 5802 5798 5786 5800 5799 5772 5764 5776 5780 5780 5776 5774 5772 5770 5770 5770 5769 5771 5770 5771 5770 5770 5770 5771 5770 5769 5769 5768 5769 5766 5765 5764 5763 5760 5759 5758 5756 5753 5752 5752 5750
5845 5816 5793 5793 5792 5792 5805 5796 5804 5810 5800 5798 5795 5793 5792 5785 5781 5777 5774 5772 5771 5772 5772 5773 5770 5771 5771 5771 5771 5771 5770 5770 5768 5770 5768 5768 5768 5767 5765 5764 5764 5764 5761 5760 5758 5755 5754 5752 5751
5836 5811 5802 5809 5809 5804 5807 5804 5803 5798 5795 5786 5786 5791 5789 5785 5780 5778 5775 5774 5774 5774 5773 5773 5772 5773 5771 5772 5771 5773 5771 5771 5769 5771 5770 5769 5767 5765 5765 5764 5765 5763 5763 5761 5760 5757 5755 5754 5751
5831 5810 5816 5813 5819 5821 5812 5807 5812 5800 5790 5795 5788 5788 5786 5782 5780 5780 5779 5779 5778 5778 5778 5776 5775 5774 5773 5773 5773 5772 5770 5770 5771 5770 5771 5770 5766 5765 5766 5766 5767 5767 5765 5763 5761 5759 5756 5755 5754
5824 5822 5823 5821 5824 5821 5812 5817 5808 5810 5809 5814 5802 5799 5792 5787 5785 5783 5782 5782 5781 5779 5780 5781 5779 5776 5774 5773 5772 5771 5770 5772 5772 5771 5772 5769 5767 5768 5766 5768 5770 5770 5768 5766 5763 5762 5759 5758 5756
5831 5822 5825 5828 5828 5826 5824 5815 5811 5807 5814 5812 5802 5795 5793 5792 5789 5788 5787 5787 5786 5783 5784 5784 5782 5779 5776 5773 5772 5771 5772 5772 5771 5772 5771 5769 5768 5771 5768 5768 5770 5770 5770 5768 5766 5765 5762 5762 5760
5837 5831 5826 5828 5828 5828 5819 5815 5817 5808 5814 5805 5801 5795 5794 5793 5794 5792 5789 5788 5787 5787 5788 5788 5785 5781 5777 5775 5774 5773 5772 5771 5771 5771 5771 5769 5769 5772 5770 5770 5771 5770 5770 5769 5767 5766 5765 5764 5762
5840 5827 5831 5828 5827 5823 5825 5809 5809 5817 5813 5804 5802 5798 5795 5795 5794 5794 5797 5795 5794 5792 5791 5789 5786 5783 5779 5776 5774 5773 5774 5774 5772 5771 5770 5771 5771 5771 5769 5769 5770 5770 5768 5768 5768 5767 5766 5765 5764
5829 5827 5805 5824 5826 5827 5827 5801 5808 5819 5813 5804 5803 5801 5797 5796 5797 5797 5799 5798 5797 5794 5790 5790 5789 5784 5780 5777 5774 5774 5774 5774 5774 5773 5773 5773 5772 5771 5770 5771 5771 5770 5768 5767 5768 5769 5768 5766 5763
5819 5803 5805 5817 5831 5827 5823 5807 5813 5820 5817 5808 5805 5804 5802 5802 5801 5801 5801 5799 5799 5796 5793 5790 5789 5786 5782 5777 5775 5775 5775 5775 5777 5775 5775 5775 5773 5772 5772 5773 5771 5769 5770 5769 5769 5768 5768 5763 5761
5807 5806 5808 5810 5827 5822 5816 5814 5817 5819 5818 5814 5812 5810 5808 5806 5808 5809 5806 5804 5801 5799 5796 5791 5790 5787 5782 5778 5775 5776 5777 5777 5777 5777 5777 5775 5775 5773 5773 5772 5770 5768 5770 5769 5768 5767 5765 5764 5760
5823 5816 5809 5820 5832 5823 5819 5819 5819 5823 5820 5817 5816 5812 5811 5813 5819 5816 5812 5808 5802 5800 5797 5794 5789 5787 5782 5778 5775 5776 5777 5780 5780 5779 5776 5776 5776 5775 5774 5774 5771 5769 5768 5767 5765 5765 5762 5759 5758
5822 5815 5813 5819 5825 5822 5821 5824 5830 5828 5829 5831 5825 5820 5819 5817 5818 5817 5814 5810 5807 5804 5802 5796 5793 5789 5785 5782 5780 5780 5778 5781 5781 5780 5777 5777 5777 5776 5776 5775 5772 5769 5766 5763 5762 5762 5761 5759 5758
5824 5819 5812 5810 5818 5824 5823 5826 5823 5830 5832 5833 5835 5837 5831 5823 5819 5820 5818 5815 5812 5809 5808 5805 5799 5793 5789 5787 5783 5780 5779 5778 5779 5780 5780 5779 5778 5777 5777 5775 5772 5767 5764 5762 5760 5760 5760 5757 5756
5816 5831 5822 5815 5812 5798 5819 5801 5828 5830 5825 5829 5835 5837 5837 5834 5830 5828 5825 5821 5818 5818 5815 5811 5805 5800 5793 5788 5785 5782 5781 5778 5782 5782 5782 5782 5780 5779 5777 5775 5771 5766 5762 5758 5758 5759 5760 5758 5756
5822 5827 5820 5814 5808 5806 5807 5808 5836 5829 5830 5830 5836 5840 5840 5840 5838 5832 5829 5831 5831 5825 5822 5816 5809 5804 5799 5793 5789 5784 5781 5783 5783 5782 5780 5781 5781 5779 5777 5775 5771 5765 5760 5756 5756 5757 5758 5759 5759
5823 5816 5811 5809 5807 5794 5802 5810 5829 5836 5841 5843 5849 5847 5845 5843 5842 5841 5840 5837 5832 5829 5824 5820 5813 5807 5803 5797 5792 5786 5782 5779 5777 5778 5779 5781 5782 5781 5779 5776 5771 5765 5760 5755 5756 5758 5759 5759 5759
5815 5810 5781 5777 5782 5790 5797 5798 5831 5851 5851 5850 5853 5856 5855 5852 5847 5844 5842 5838 5834 5829 5826 5822 5814 5809 5806 5800 5795 5790 5786 5779 5777 5779 5782 5782 5784 5784 5783 5778 5773 5768 5762 5757 5759 5761 5761 5760 5760
5808 5811 5790 5760 5771 5795 5787 5799 5834 5850 5852 5857 5861 5867 5862 5856 5855 5851 5848 5843 5840 5836 5830 5823 5816 5810 5806 5802 5797 5793 5789 5785 5782 5783 5786 5787 5788 5788 5786 5781 5777 5771 5766 5762 5763 5763 5763 5762 5760
5795 5794 5818 5787 5769 5782 5797 5817 5844 5850 5850 5852 5856 5864 5863 5860 5857 5855 5850 5849 5845 5840 5832 5826 5819 5811 5806 5804 5799 5793 5791 5789 5788 5786 5786 5787 5788 5789 5787 5783 5779 5774 5770 5766 5765 5765 5763 5762 5761
5815 5816 5793 5789 5764 5762 5788 5796 5817 5840 5845 5846 5848 5853 5858 5863 5862 5862 5854 5852 5851 5847 5840 5828 5816 5805 5799 5795 5793 5791 5791 5792 5791 5789 5787 5787 5788 5788 5787 5785 5782 5777 5774 5770 5766 5766 5763 5759 5758
5798 5799 5792 5802 5787 5780 5774 5799 5851 5847 5844 5842 5851 5851 5851 5857 5861 5862 5859 5853 5852 5846 5836 5826 5815 5807 5800 5803 5797 5795 5794 5796 5795 5794 5791 5791 5790 5789 5788 5788 5785 5781 5777 5773 5770 5768 5766 5761 5758
5815 5816 5819 5794 5775 5778 5786 5806 5849 5845 5844 5845 5848 5852 5852 5854 5859 5862 5860 5850 5850 5840 5829 5821 5816 5811 5796 5790 5793 5797 5801 5801 5802 5798 5798 5796 5793 5793 5791 5790 5788 5784 5780 5776 5772 5769 5767 5763 5758